TVS1DE LKPR-LDSP

Flight info

Callsign TVS1DE
Flight time 1h 18m
Altitude 35000
Route VOZ DCT PISAM DCT TAGAS DCT GRZ DCT VALLU DCT NEMEK DCT NUPSO
Aircraft B738/M-SDE3FGHIJ1RWXY/LB1

Departure

Time 2026-05-04 13:15
Airport Václav Havel Airport Prague (LKPR)

Arrival

Time 2026-05-04 14:33
Airport Split Saint Jerome Airport (LDSP)
Time Latitude Longitude Altitude Speed Heading
2026-05-04 13:04 50.10981 14.26325 1172 ft 0 kts 124°
2026-05-04 13:07 50.10953 14.26385 1170 ft 6 kts 139°
2026-05-04 13:08 50.10916 14.26384 1173 ft 5 kts 213°
2026-05-04 13:08 50.10880 14.26338 1169 ft 7 kts 218°
2026-05-04 13:08 50.10838 14.26294 1172 ft 8 kts 214°
2026-05-04 13:08 50.10786 14.26238 1171 ft 9 kts 214°
2026-05-04 13:09 50.10729 14.26176 1173 ft 12 kts 214°
2026-05-04 13:09 50.10656 14.26099 1171 ft 13 kts 213°
2026-05-04 13:09 50.10584 14.26028 1170 ft 12 kts 212°
2026-05-04 13:09 50.10507 14.25986 1174 ft 12 kts 163°
2026-05-04 13:10 50.10451 14.26076 1171 ft 12 kts 124°
2026-05-04 13:10 50.10403 14.26176 1171 ft 11 kts 127°
2026-05-04 13:10 50.10339 14.26306 1172 ft 21 kts 127°
2026-05-04 13:10 50.10231 14.26530 1172 ft 30 kts 126°
2026-05-04 13:11 50.10105 14.26785 1183 ft 29 kts 128°
2026-05-04 13:11 50.09990 14.27029 1196 ft 27 kts 126°
2026-05-04 13:11 50.09880 14.27256 1201 ft 25 kts 128°
2026-05-04 13:11 50.09764 14.27450 1204 ft 24 kts 135°
2026-05-04 13:12 50.09649 14.27625 1208 ft 23 kts 135°
2026-05-04 13:12 50.09539 14.27796 1211 ft 22 kts 135°
2026-05-04 13:12 50.09432 14.27961 1214 ft 21 kts 135°
2026-05-04 13:12 50.09329 14.28118 1214 ft 21 kts 135°
2026-05-04 13:13 50.09225 14.28268 1211 ft 19 kts 153°
2026-05-04 13:13 50.09156 14.28270 1210 ft 7 kts 200°
2026-05-04 13:13 50.09113 14.28229 1210 ft 10 kts 218°
2026-05-04 13:13 50.09062 14.28161 1208 ft 4 kts 239°
2026-05-04 13:14 50.09068 14.28123 1207 ft 4 kts 300°
2026-05-04 13:14 50.09186 14.27875 1210 ft 69 kts 306°
2026-05-04 13:14 50.09648 14.26916 1206 ft 149 kts 307°
2026-05-04 13:14 50.10399 14.25404 1488 ft 197 kts 308°
2026-05-04 13:15 50.11298 14.23607 2169 ft 222 kts 308°
2026-05-04 13:15 50.12277 14.21629 2935 ft 236 kts 307°
2026-05-04 13:15 50.13289 14.19559 3820 ft 247 kts 306°
2026-05-04 13:15 50.14272 14.17445 4835 ft 237 kts 305°
2026-05-04 13:16 50.15285 14.15275 5013 ft 266 kts 306°
2026-05-04 13:16 50.16272 14.12788 5781 ft 270 kts 285°
2026-05-04 13:16 50.16350 14.09924 6928 ft 265 kts 255°
2026-05-04 13:16 50.15581 14.07351 8047 ft 265 kts 232°
2026-05-04 13:17 50.14182 14.05462 8891 ft 270 kts 208°
2026-05-04 13:17 50.12362 14.04704 9738 ft 277 kts 183°
2026-05-04 13:17 50.10447 14.05305 10408 ft 292 kts 159°
2026-05-04 13:17 50.08631 14.07039 10622 ft 322 kts 144°
2026-05-04 13:18 50.06887 14.09436 10839 ft 346 kts 139°
2026-05-04 13:18 50.05130 14.12112 11367 ft 357 kts 138°
2026-05-04 13:18 50.03366 14.14846 12134 ft 360 kts 138°
2026-05-04 13:18 50.01571 14.17601 12896 ft 363 kts 139°
2026-05-04 13:19 49.99750 14.20352 13626 ft 368 kts 139°
2026-05-04 13:19 49.97914 14.23090 14282 ft 372 kts 139°
2026-05-04 13:19 49.96029 14.25870 14938 ft 375 kts 139°
2026-05-04 13:19 49.94115 14.28674 15604 ft 378 kts 140°
2026-05-04 13:20 49.92191 14.31480 16280 ft 382 kts 140°
2026-05-04 13:20 49.90241 14.34313 16941 ft 385 kts 140°
2026-05-04 13:20 49.88267 14.37178 17575 ft 389 kts 140°
2026-05-04 13:20 49.86281 14.40054 18181 ft 393 kts 140°
2026-05-04 13:21 49.84271 14.42965 18760 ft 396 kts 140°
2026-05-04 13:21 49.82270 14.45857 19299 ft 399 kts 140°
2026-05-04 13:21 49.80231 14.48801 19858 ft 402 kts 140°
2026-05-04 13:21 49.78172 14.51769 20391 ft 406 kts 140°
2026-05-04 13:22 49.76097 14.54759 20915 ft 409 kts 140°
2026-05-04 13:22 49.74004 14.57770 21447 ft 412 kts 140°
2026-05-04 13:22 49.71897 14.60798 21961 ft 415 kts 139°
2026-05-04 13:22 49.69774 14.63844 22453 ft 419 kts 139°
2026-05-04 13:23 49.67626 14.66925 22956 ft 422 kts 139°
2026-05-04 13:23 49.65473 14.70008 23449 ft 425 kts 139°
2026-05-04 13:23 49.63292 14.73127 23870 ft 428 kts 139°
2026-05-04 13:23 49.61123 14.76227 24253 ft 431 kts 139°
2026-05-04 13:24 49.58912 14.79380 24646 ft 434 kts 139°
2026-05-04 13:24 49.56690 14.82544 25018 ft 437 kts 139°
2026-05-04 13:24 49.54451 14.85713 25403 ft 439 kts 141°
2026-05-04 13:25 49.49336 14.90842 26106 ft 441 kts 154°
2026-05-04 13:25 49.46599 14.93017 26464 ft 443 kts 155°
2026-05-04 13:25 49.43843 14.95183 26802 ft 446 kts 155°
2026-05-04 13:25 49.41105 14.97343 27129 ft 449 kts 155°
2026-05-04 13:26 49.38325 14.99554 27456 ft 451 kts 155°
2026-05-04 13:26 49.35530 15.01791 27788 ft 454 kts 154°
2026-05-04 13:26 49.32723 15.04048 28103 ft 456 kts 154°
2026-05-04 13:26 49.29918 15.06306 28421 ft 459 kts 154°
2026-05-04 13:27 49.27067 15.08600 28731 ft 461 kts 154°
2026-05-04 13:27 49.24226 15.10884 29053 ft 463 kts 154°
2026-05-04 13:27 49.21364 15.13180 29326 ft 466 kts 154°
2026-05-04 13:27 49.18480 15.15492 29615 ft 468 kts 154°
2026-05-04 13:28 49.15589 15.17805 29938 ft 470 kts 154°
2026-05-04 13:28 49.12693 15.20120 30328 ft 468 kts 154°
2026-05-04 13:28 49.09812 15.22419 30734 ft 466 kts 154°
2026-05-04 13:28 49.06940 15.24708 31066 ft 466 kts 154°
2026-05-04 13:29 49.04076 15.26987 31361 ft 466 kts 154°
2026-05-04 13:29 49.01191 15.29279 31680 ft 465 kts 155°
2026-05-04 13:29 48.98357 15.31529 32023 ft 464 kts 155°
2026-05-04 13:29 48.95455 15.33831 32355 ft 464 kts 155°
2026-05-04 13:30 48.92630 15.36067 32681 ft 463 kts 155°
2026-05-04 13:30 48.89732 15.38214 32970 ft 461 kts 160°
2026-05-04 13:30 48.86692 15.39722 33254 ft 458 kts 170°
2026-05-04 13:30 48.83585 15.40721 33588 ft 456 kts 171°
2026-05-04 13:31 48.80462 15.41663 33872 ft 456 kts 172°
2026-05-04 13:31 48.77361 15.42590 34111 ft 456 kts 171°
2026-05-04 13:31 48.74241 15.43536 34362 ft 455 kts 171°
2026-05-04 13:31 48.71144 15.44493 34654 ft 454 kts 171°
2026-05-04 13:32 48.68043 15.45464 34913 ft 453 kts 171°
2026-05-04 13:32 48.64945 15.46441 34954 ft 457 kts 171°
2026-05-04 13:32 48.58758 15.48400 34962 ft 455 kts 171°
2026-05-04 13:33 48.52574 15.50357 34965 ft 453 kts 171°
2026-05-04 13:33 48.46410 15.52299 34963 ft 451 kts 171°
2026-05-04 13:34 48.40267 15.54228 34962 ft 450 kts 171°
2026-05-04 13:34 48.34127 15.56151 34960 ft 450 kts 171°
2026-05-04 13:35 48.24941 15.59020 34952 ft 452 kts 171°
2026-05-04 13:36 48.18764 15.60943 34968 ft 454 kts 171°
2026-05-04 13:36 48.12563 15.62870 34956 ft 456 kts 171°
2026-05-04 13:37 48.06346 15.64752 34944 ft 456 kts 174°
2026-05-04 13:37 48.01111 15.64954 34954 ft 452 kts 189°
2026-05-04 13:38 47.93859 15.63492 34969 ft 452 kts 191°
2026-05-04 13:38 47.87642 15.62218 34975 ft 450 kts 190°
2026-05-04 13:39 47.81436 15.61005 34966 ft 448 kts 190°
2026-05-04 13:39 47.76291 15.60023 34979 ft 446 kts 190°
2026-05-04 13:40 47.70145 15.58858 35001 ft 445 kts 190°
2026-05-04 13:40 47.63998 15.57696 34993 ft 446 kts 190°
2026-05-04 13:41 47.57822 15.56527 35009 ft 451 kts 189°
2026-05-04 13:41 47.51544 15.55343 35006 ft 454 kts 189°
2026-05-04 13:42 47.42127 15.53574 35007 ft 455 kts 189°
2026-05-04 13:42 47.35843 15.52396 35004 ft 455 kts 189°
2026-05-04 13:43 47.29615 15.51232 35008 ft 453 kts 189°
2026-05-04 13:43 47.23350 15.50063 34998 ft 452 kts 189°
2026-05-04 13:44 47.17115 15.48903 34993 ft 450 kts 189°
2026-05-04 13:44 47.10899 15.47749 34988 ft 449 kts 189°
2026-05-04 13:45 47.04748 15.46609 34994 ft 447 kts 189°
2026-05-04 13:45 46.98575 15.45468 34992 ft 446 kts 189°
2026-05-04 13:46 46.92414 15.44349 34997 ft 446 kts 189°
2026-05-04 13:46 46.86242 15.43292 34994 ft 446 kts 188°
2026-05-04 13:47 46.80071 15.42243 35000 ft 447 kts 189°
2026-05-04 13:47 46.73888 15.41187 35002 ft 448 kts 189°
2026-05-04 13:48 46.67674 15.40125 35013 ft 451 kts 189°
2026-05-04 13:48 46.61430 15.39059 35006 ft 452 kts 189°
2026-05-04 13:49 46.55186 15.37995 35015 ft 452 kts 189°
2026-05-04 13:49 46.48975 15.36943 35018 ft 452 kts 189°
2026-05-04 13:50 46.42726 15.35884 35022 ft 451 kts 189°
2026-05-04 13:50 46.36492 15.34830 35022 ft 451 kts 189°
2026-05-04 13:51 46.30262 15.33780 35030 ft 451 kts 189°
2026-05-04 13:51 46.23985 15.33169 35032 ft 452 kts 185°
2026-05-04 13:52 46.14566 15.32780 35027 ft 450 kts 184°
2026-05-04 13:53 46.08304 15.32483 35020 ft 450 kts 184°
2026-05-04 13:53 46.02044 15.32154 35022 ft 450 kts 184°
2026-05-04 13:54 45.92697 15.31654 35021 ft 450 kts 184°
2026-05-04 13:55 45.83305 15.31157 35027 ft 450 kts 184°
2026-05-04 13:55 45.73887 15.30660 35031 ft 452 kts 184°
2026-05-04 13:56 45.67602 15.30329 35033 ft 452 kts 184°
2026-05-04 13:57 45.58150 15.29986 35034 ft 455 kts 178°
2026-05-04 13:58 45.45762 15.34319 35040 ft 460 kts 166°
2026-05-04 13:58 45.36543 15.38030 35049 ft 461 kts 166°
2026-05-04 13:59 45.30349 15.40462 35051 ft 462 kts 166°
2026-05-04 14:00 45.21062 15.44080 35043 ft 460 kts 166°
2026-05-04 14:00 45.11813 15.47673 35046 ft 458 kts 167°
2026-05-04 14:01 45.05672 15.50054 35056 ft 457 kts 167°
2026-05-04 14:02 44.96471 15.53610 35065 ft 457 kts 167°
2026-05-04 14:02 44.90354 15.55968 35060 ft 458 kts 167°
2026-05-04 14:03 44.84147 15.58354 34454 ft 467 kts 166°
2026-05-04 14:03 44.81013 15.59557 33836 ft 466 kts 166°
2026-05-04 14:03 44.77938 15.60737 33247 ft 464 kts 166°
2026-05-04 14:03 44.74793 15.61943 32791 ft 459 kts 166°
2026-05-04 14:04 44.68728 15.64265 31880 ft 451 kts 166°
2026-05-04 14:04 44.65705 15.65420 31430 ft 447 kts 166°
2026-05-04 14:04 44.62675 15.66575 30979 ft 443 kts 166°
2026-05-04 14:05 44.56803 15.68811 30107 ft 437 kts 166°
2026-05-04 14:05 44.53879 15.69923 29603 ft 434 kts 166°
2026-05-04 14:05 44.50971 15.71028 29111 ft 430 kts 166°
2026-05-04 14:06 44.48096 15.72119 28679 ft 426 kts 166°
2026-05-04 14:06 44.45249 15.73198 28225 ft 422 kts 166°
2026-05-04 14:06 44.42428 15.74266 27772 ft 419 kts 166°
2026-05-04 14:06 44.39624 15.75327 27317 ft 415 kts 166°
2026-05-04 14:07 44.36843 15.76378 26879 ft 412 kts 166°
2026-05-04 14:07 44.34085 15.77420 26451 ft 410 kts 166°
2026-05-04 14:07 44.31342 15.78455 26020 ft 407 kts 166°
2026-05-04 14:07 44.28604 15.79487 25590 ft 405 kts 166°
2026-05-04 14:08 44.25891 15.80507 25154 ft 403 kts 166°
2026-05-04 14:08 44.23223 15.81511 24741 ft 401 kts 166°
2026-05-04 14:08 44.20531 15.82524 24314 ft 399 kts 166°
2026-05-04 14:08 44.17855 15.83529 23873 ft 398 kts 166°
2026-05-04 14:09 44.12546 15.85656 22823 ft 395 kts 158°
2026-05-04 14:09 44.10095 15.87293 22276 ft 387 kts 153°
2026-05-04 14:10 44.05450 15.90781 21213 ft 372 kts 152°
2026-05-04 14:10 44.03176 15.92478 20686 ft 366 kts 153°
2026-05-04 14:10 44.00943 15.94116 20109 ft 361 kts 153°
2026-05-04 14:10 43.98724 15.95721 19470 ft 359 kts 153°
2026-05-04 14:11 43.96509 15.97310 18886 ft 356 kts 153°
2026-05-04 14:11 43.92158 16.00420 17623 ft 348 kts 153°
2026-05-04 14:11 43.90041 16.01931 17072 ft 343 kts 153°
2026-05-04 14:12 43.87959 16.03414 16693 ft 332 kts 153°
2026-05-04 14:12 43.85928 16.04861 16299 ft 323 kts 153°
2026-05-04 14:12 43.81981 16.07662 15553 ft 314 kts 153°
2026-05-04 14:13 43.80029 16.09047 15120 ft 317 kts 153°
2026-05-04 14:13 43.78054 16.10447 14619 ft 321 kts 153°
2026-05-04 14:13 43.76059 16.11861 14129 ft 325 kts 153°
2026-05-04 14:13 43.74032 16.13296 13617 ft 327 kts 153°
2026-05-04 14:14 43.72007 16.14728 13305 ft 324 kts 153°
2026-05-04 14:14 43.68045 16.17528 13136 ft 320 kts 153°
2026-05-04 14:14 43.66071 16.18924 13132 ft 322 kts 153°
2026-05-04 14:15 43.62058 16.21755 13122 ft 317 kts 153°
2026-05-04 14:15 43.58320 16.24386 12901 ft 285 kts 153°
2026-05-04 14:16 43.54886 16.26801 12545 ft 273 kts 153°
2026-05-04 14:16 43.53199 16.27985 12335 ft 273 kts 153°
2026-05-04 14:17 43.49807 16.30389 11571 ft 274 kts 148°
2026-05-04 14:17 43.48344 16.32046 11209 ft 272 kts 135°
2026-05-04 14:17 43.45646 16.35719 10245 ft 273 kts 135°
2026-05-04 14:18 43.44283 16.37529 9752 ft 273 kts 136°
2026-05-04 14:18 43.41439 16.40955 8918 ft 270 kts 153°
2026-05-04 14:19 43.37771 16.41028 8427 ft 274 kts 200°
2026-05-04 14:19 43.36013 16.39996 8181 ft 275 kts 203°
2026-05-04 14:19 43.34257 16.38939 7938 ft 275 kts 203°
2026-05-04 14:19 43.32491 16.37887 7719 ft 280 kts 203°
2026-05-04 14:20 43.30696 16.36824 7489 ft 277 kts 202°
2026-05-04 14:20 43.28940 16.35797 7298 ft 272 kts 202°
2026-05-04 14:20 43.27207 16.34788 7067 ft 269 kts 202°
2026-05-04 14:21 43.23804 16.32810 6595 ft 266 kts 202°
2026-05-04 14:21 43.22117 16.31796 6341 ft 264 kts 210°
2026-05-04 14:21 43.20785 16.30106 6052 ft 262 kts 239°
2026-05-04 14:21 43.20238 16.27768 5857 ft 255 kts 268°
2026-05-04 14:22 43.20475 16.25428 5767 ft 244 kts 290°
2026-05-04 14:22 43.21111 16.23309 5677 ft 239 kts 295°
2026-05-04 14:22 43.21797 16.21265 5626 ft 234 kts 295°
2026-05-04 14:22 43.22471 16.19251 5555 ft 232 kts 295°
2026-05-04 14:23 43.24925 16.16620 5374 ft 238 kts 355°
2026-05-04 14:23 43.26546 16.16974 5306 ft 237 kts 19°
2026-05-04 14:23 43.28072 16.17831 5223 ft 235 kts 23°
2026-05-04 14:24 43.29544 16.18723 5116 ft 227 kts 23°
2026-05-04 14:24 43.30939 16.19558 5016 ft 218 kts 22°
2026-05-04 14:24 43.32325 16.20375 4917 ft 215 kts 22°
2026-05-04 14:24 43.33695 16.21177 4862 ft 212 kts 22°
2026-05-04 14:25 43.34946 16.22209 4709 ft 209 kts 41°
2026-05-04 14:25 43.36668 16.24374 4493 ft 195 kts 41°
2026-05-04 14:25 43.38000 16.26003 4344 ft 189 kts 40°
2026-05-04 14:26 43.38660 16.26804 4260 ft 192 kts 40°
2026-05-04 14:26 43.39666 16.28034 4155 ft 194 kts 41°
2026-05-04 14:26 43.40682 16.29271 3992 ft 196 kts 40°
2026-05-04 14:26 43.41686 16.30492 3826 ft 196 kts 41°
2026-05-04 14:27 43.42725 16.31754 3649 ft 195 kts 41°
2026-05-04 14:27 43.43724 16.32970 3435 ft 188 kts 41°
2026-05-04 14:27 43.44675 16.34126 3179 ft 177 kts 41°
2026-05-04 14:27 43.45558 16.35200 2970 ft 164 kts 41°
2026-05-04 14:28 43.46417 16.36223 2655 ft 162 kts 40°
2026-05-04 14:28 43.47253 16.37193 2355 ft 156 kts 40°
2026-05-04 14:28 43.48075 16.38112 2189 ft 143 kts 39°
2026-05-04 14:28 43.48873 16.38976 2368 ft 154 kts 38°
2026-05-04 14:29 43.50604 16.40643 2289 ft 148 kts 33°
2026-05-04 14:29 43.52454 16.41736 2107 ft 148 kts
2026-05-04 14:30 43.53477 16.41661 2042 ft 146 kts 342°
2026-05-04 14:30 43.54393 16.41114 1944 ft 143 kts 326°
2026-05-04 14:30 43.55617 16.38902 2091 ft 147 kts 290°
2026-05-04 14:31 43.56000 16.37582 1921 ft 145 kts 285°
2026-05-04 14:31 43.56183 16.34905 1469 ft 143 kts 264°
2026-05-04 14:32 43.55355 16.32471 586 ft 140 kts 236°
2026-05-04 14:32 43.54799 16.31427 202 ft 132 kts 232°
2026-05-04 14:32 43.54274 16.30490 62 ft 111 kts 233°
2026-05-04 14:32 43.53899 16.29810 77 ft 67 kts 233°
2026-05-04 14:33 43.53709 16.29463 84 ft 24 kts 232°
2026-05-04 14:33 43.53611 16.29288 90 ft 23 kts 232°
2026-05-04 14:33 43.53516 16.29119 86 ft 22 kts 232°
2026-05-04 14:33 43.53425 16.28956 85 ft 21 kts 232°
2026-05-04 14:34 43.53336 16.28794 84 ft 21 kts 233°
2026-05-04 14:34 43.53250 16.28643 81 ft 16 kts 224°
2026-05-04 14:34 43.53198 16.28588 82 ft 4 kts 273°
2026-05-04 14:34 43.53215 16.28567 82 ft 3 kts 352°
2026-05-04 14:35 43.53230 16.28587 82 ft 5 kts 58°
2026-05-04 14:35 43.53267 16.28669 84 ft 15 kts 58°
2026-05-04 14:35 43.53347 16.28816 86 ft 24 kts 52°
2026-05-04 14:35 43.53461 16.29017 86 ft 29 kts 52°
2026-05-04 14:36 43.53595 16.29255 85 ft 32 kts 52°
2026-05-04 14:36 43.53679 16.29414 86 ft 14 kts 62°
2026-05-04 14:36 43.53694 16.29540 84 ft 12 kts 103°
2026-05-04 14:36 43.53667 16.29601 82 ft 6 kts 105°
2026-05-04 14:37 43.53681 16.29656 83 ft 7 kts 52°
2026-05-04 14:37 43.53709 16.29707 81 ft 7 kts 62°
2026-05-04 14:37 43.53707 16.29762 80 ft 3 kts 109°
2026-05-04 14:37 43.53697 16.29795 83 ft 4 kts 113°
2026-05-04 14:38 43.53692 16.29810 81 ft 1 kts 114°
2026-05-04 14:38 43.53691 16.29813 80 ft 0 kts 114°